Perry, IA

2:15 AM CDT on April 20, 2018 (GMT -0500)
Perry Municipal

Weather History for KPRO - November, 2011

Change the Weather History Date:

Sunday, November 20, 2011

  Actual Average Record
Temperature  
Mean Temperature 28 °F -  
Max Temperature 35 °F 46 °F 66 °F (1975)
Min Temperature 21 °F 25 °F 6 °F (1950)
Degree Days  
Heating Degree Days 37    
Moisture  
Dew Point 21 °F    
Average Humidity 73    
Maximum Humidity 86    
Minimum Humidity 56    
Precipitation  
Precipitation 0.00 in - - ()
Sea Level Pressure  
Sea Level Pressure 30.27 in    
Wind  
Wind Speed 9 mph (North)    
Max Wind Speed 14 mph    
Max Gust Speed 20 mph    
Visibility 10 miles    
Events      
Averages and records for this station are not official NWS values.
T = Trace of Precipitation, MM = Missing Value Source: NWS Daily Summary

Daily Weather History Graph

Daily Weather History Graph

Search for Another Location

Airport or City:

Astronomy

Nov. 20, 2011 Rise Set
Actual Time 7:11 AM CST 4:52 PM CST
Civil Twilight 6:41 AM CST 5:22 PM CST
Nautical Twilight 6:07 AM CST 5:56 PM CST
Astronomical Twilight 5:34 AM CST 6:29 PM CST
Moon 1:36 AM CST 1:45 PM CST
Length of Visible Light 10h 40m
Length of Day
9h 40m
Waning Crescent, 27% of the Moon is Illuminated
Nov 20
Waning Crescent
Nov 25
New
Dec 2
First Quarter
Dec 10
Full
Dec 17
Last Quarter

Hourly Weather History & Observations

Time (CST) Temp. Windchill Dew Point Humidity Pressure Visibility Wind Dir Wind Speed Gust Speed Precip Events Conditions
12:15 AM 28.4 °F 18.5 °F 21.2 °F 74% 30.15 in 10.0 mi NW 11.5 mph - N/A   Overcast
12:35 AM 26.6 °F 17.5 °F 21.2 °F 80% 30.17 in 10.0 mi NW 9.2 mph 19.6 mph N/A   Overcast
12:55 AM 26.6 °F 18.2 °F 21.2 °F 80% 30.19 in 10.0 mi NW 8.1 mph - N/A   Overcast
1:15 AM 26.6 °F 15.2 °F 21.2 °F 80% 30.18 in 10.0 mi NW 13.8 mph - N/A   Overcast
1:35 AM 26.6 °F 17.5 °F 21.2 °F 80% 30.20 in 10.0 mi NW 9.2 mph - N/A   Overcast
1:55 AM 26.6 °F 16.8 °F 21.2 °F 80% 30.21 in 10.0 mi NNW 10.4 mph - N/A   Overcast
2:15 AM 26.6 °F 16.2 °F 21.2 °F 80% 30.22 in 10.0 mi NW 11.5 mph - N/A   Overcast
2:35 AM 26.6 °F 16.8 °F 21.2 °F 80% 30.24 in 10.0 mi NW 10.4 mph - N/A   Overcast
2:55 AM 26.6 °F 18.2 °F 19.4 °F 74% 30.24 in 10.0 mi WNW 8.1 mph - N/A   Overcast
3:15 AM 26.6 °F 18.2 °F 19.4 °F 74% 30.25 in 10.0 mi WNW 8.1 mph - N/A   Overcast
3:35 AM 24.8 °F 15.3 °F 19.4 °F 80% 30.24 in 10.0 mi NW 9.2 mph - N/A   Overcast
3:55 AM 24.8 °F 14.6 °F 19.4 °F 80% 30.24 in 10.0 mi NW 10.4 mph - N/A   Overcast
4:15 AM 26.6 °F 16.8 °F 21.2 °F 80% 30.23 in 10.0 mi NNW 10.4 mph - N/A   Overcast
4:35 AM 24.8 °F 14.6 °F 19.4 °F 80% 30.22 in 10.0 mi NNW 10.4 mph - N/A   Overcast
4:55 AM 24.8 °F 12.9 °F 19.4 °F 80% 30.23 in 10.0 mi NNW 13.8 mph - N/A   Mostly Cloudy
5:55 AM 23.0 °F 13.1 °F 17.6 °F 80% 30.25 in 10.0 mi NNW 9.2 mph - N/A   Mostly Cloudy
6:55 AM 21.2 °F 9.5 °F 17.6 °F 86% 30.26 in 10.0 mi NNW 11.5 mph - N/A   Clear
7:15 AM 23.0 °F 11.1 °F 17.6 °F 80% 30.26 in 10.0 mi North 12.7 mph - N/A   Mostly Cloudy
7:35 AM 23.0 °F 13.1 °F 17.6 °F 80% 30.29 in 10.0 mi North 9.2 mph - N/A   Scattered Clouds
7:55 AM 23.0 °F 14.7 °F 17.6 °F 80% 30.30 in 10.0 mi NNW 6.9 mph - N/A   Clear
8:15 AM 23.0 °F 13.1 °F 17.6 °F 80% 30.30 in 10.0 mi North 9.2 mph - N/A   Clear
8:35 AM 23.0 °F 14.7 °F 17.6 °F 80% 30.31 in 10.0 mi North 6.9 mph - N/A   Clear
8:55 AM 23.0 °F 13.9 °F 19.4 °F 86% 30.32 in 10.0 mi NNW 8.1 mph - N/A   Clear
9:15 AM 24.8 °F 16.9 °F 19.4 °F 80% 30.32 in 10.0 mi NNW 6.9 mph - N/A   Scattered Clouds
9:35 AM 24.8 °F 16.9 °F 19.4 °F 80% 30.33 in 10.0 mi NW 6.9 mph - N/A   Scattered Clouds
9:55 AM 26.6 °F 19.1 °F 19.4 °F 74% 30.32 in 10.0 mi North 6.9 mph - N/A   Clear
10:15 AM 26.6 °F 18.2 °F 19.4 °F 74% 30.33 in 10.0 mi NNW 8.1 mph - N/A   Scattered Clouds
10:35 AM 28.4 °F 19.7 °F 19.4 °F 69% 30.33 in 10.0 mi NNW 9.2 mph - N/A   Mostly Cloudy
10:55 AM 28.4 °F 20.4 °F 19.4 °F 69% 30.32 in 10.0 mi North 8.1 mph - N/A   Mostly Cloudy
11:15 AM 30.2 °F 22.6 °F 19.4 °F 64% 30.33 in 10.0 mi North 8.1 mph - N/A   Mostly Cloudy
11:35 AM 30.2 °F 21.9 °F 21.2 °F 69% 30.32 in 10.0 mi NNW 9.2 mph - N/A   Mostly Cloudy
12:15 PM 32.0 °F 25.6 °F 21.2 °F 64% 30.31 in 10.0 mi North 6.9 mph - N/A   Overcast
12:55 PM 32.0 °F 24.2 °F 21.2 °F 64% 30.30 in 10.0 mi NNW 9.2 mph - N/A   Scattered Clouds
1:15 PM 33.8 °F 26.4 °F 21.2 °F 60% 30.30 in 10.0 mi North 9.2 mph - N/A   Clear
1:35 PM 33.8 °F 26.4 °F 21.2 °F 60% 30.29 in 10.0 mi NNW 9.2 mph - N/A   Clear
1:55 PM 33.8 °F 26.4 °F 21.2 °F 60% 30.30 in 10.0 mi North 9.2 mph - N/A   Clear
2:15 PM 33.8 °F 27.0 °F 21.2 °F 60% 30.29 in 10.0 mi North 8.1 mph - N/A   Clear
2:35 PM 33.8 °F 26.4 °F 21.2 °F 60% 30.29 in 10.0 mi North 9.2 mph - N/A   Clear
2:55 PM 35.6 °F 29.9 °F 21.2 °F 56% 30.28 in 10.0 mi North 6.9 mph - N/A   Clear
3:15 PM 35.6 °F 28.6 °F 21.2 °F 56% 30.28 in 10.0 mi NNE 9.2 mph - N/A   Clear
3:35 PM 33.8 °F 28.6 °F 21.2 °F 60% 30.27 in 10.0 mi NNE 5.8 mph - N/A   Clear
3:55 PM 33.8 °F 27.7 °F 21.2 °F 60% 30.28 in 10.0 mi NNE 6.9 mph - N/A   Clear
4:15 PM 33.8 °F 27.0 °F 21.2 °F 60% 30.28 in 10.0 mi NNE 8.1 mph - N/A   Clear
4:35 PM 33.8 °F 27.7 °F 21.2 °F 60% 30.28 in 10.0 mi NNE 6.9 mph - N/A   Clear
5:15 PM 32.0 °F 27.5 °F 21.2 °F 64% 30.27 in 10.0 mi NE 4.6 mph - N/A   Clear
5:35 PM 32.0 °F 27.5 °F 21.2 °F 64% 30.28 in 10.0 mi NNE 4.6 mph - N/A   Clear
5:55 PM 32.0 °F 27.5 °F 21.2 °F 64% 30.29 in 10.0 mi NNE 4.6 mph - N/A   Clear
6:15 PM 32.0 °F 28.7 °F 21.2 °F 64% 30.29 in 10.0 mi NE 3.5 mph - N/A   Clear
6:35 PM 30.2 °F 25.4 °F 21.2 °F 69% 30.28 in 10.0 mi NNE 4.6 mph - N/A   Clear
6:55 PM 30.2 °F 25.4 °F 21.2 °F 69% 30.28 in 10.0 mi NNE 4.6 mph - N/A   Clear
7:35 PM 30.2 °F - 21.2 °F 69% 30.29 in 10.0 mi Calm Calm - N/A   Clear
7:55 PM 30.2 °F 25.4 °F 23.0 °F 75% 30.28 in 10.0 mi NE 4.6 mph - N/A   Clear
8:15 PM 30.2 °F 25.4 °F 23.0 °F 75% 30.28 in 10.0 mi NE 4.6 mph - N/A   Clear
8:35 PM 28.4 °F - 23.0 °F 80% 30.28 in 10.0 mi Calm Calm - N/A   Clear
8:55 PM 30.2 °F 24.3 °F 23.0 °F 75% 30.28 in 10.0 mi East 5.8 mph - N/A   Clear
9:15 PM 28.4 °F 23.3 °F 23.0 °F 80% 30.28 in 10.0 mi ENE 4.6 mph - N/A   Clear
9:35 PM 28.4 °F 24.6 °F 23.0 °F 80% 30.28 in 10.0 mi ENE 3.5 mph - N/A   Clear
9:55 PM 28.4 °F 24.6 °F 23.0 °F 80% 30.27 in 10.0 mi NE 3.5 mph - N/A   Clear
10:15 PM 28.4 °F - 23.0 °F 80% 30.27 in 10.0 mi Calm Calm - N/A   Clear
10:35 PM 26.6 °F 22.6 °F 23.0 °F 86% 30.26 in 10.0 mi ENE 3.5 mph - N/A   Clear
10:55 PM 26.6 °F - 23.0 °F 86% 30.28 in 10.0 mi Calm Calm - N/A   Clear
11:15 PM 26.6 °F 22.6 °F 21.2 °F 80% 30.26 in 10.0 mi East 3.5 mph - N/A   Clear
11:35 PM 26.6 °F 22.6 °F 23.0 °F 86% 30.26 in 10.0 mi ENE 3.5 mph - N/A   Clear
11:55 PM 23.0 °F 17.0 °F 21.2 °F 93% 30.27 in 10.0 mi NW 4.6 mph - N/A   Clear